Williams, AZ

2:25 PM MST on February 14, 2016 (GMT -0700)
Williams

Weather History for KCMR - February, 2013

Change the Weather History Date:

Tuesday, February 19, 2013

  Actual Average (KFLG) Record (KFLG)
Temperature  
Mean Temperature 34 °F 32 °F  
Max Temperature 44 °F 45 °F 65 °F (1981)
Min Temperature 24 °F 20 °F -6 °F (1942)
Degree Days  
Heating Degree Days 31 32  
Month to date heating degree days 637  
Since 1 July heating degree days 4553  
Cooling Degree Days 0 0  
Month to date cooling degree days 0  
Year to date cooling degree days 0  
Moisture  
Dew Point 15 °F    
Average Humidity 45    
Maximum Humidity 69    
Minimum Humidity 27    
Precipitation  
Precipitation 0.00 in 0.08 in 3.93 in (1993)
Month to date precipitation 1.43  
Year to date precipitation 3.48  
Snow  
Snow 0.00 in 0.80 in 12.10 in (2011)
Month to date snowfall 14.8  
Since 1 July snowfall 67.1  
Snow Depth -    
Sea Level Pressure  
Sea Level Pressure 29.87 in    
Wind  
Wind Speed 11 mph (SSE)    
Max Wind Speed 24 mph    
Max Gust Speed 33 mph    
Visibility 10 miles    
Events      
T = Trace of Precipitation, MM = Missing Value Source: NWS Daily Summary

Daily Weather History Graph

Daily Weather History Graph

Search for Another Location

Airport or City:

Trip Planner

Search our weather history database for the weather conditions in past years. The results will help you decide how hot, cold, wet, or windy it might be!

Date:

Astronomy

Feb. 19, 2013 Rise Set
Actual Time 7:10 AM MST 6:15 PM MST
Civil Twilight 6:44 AM MST 6:41 PM MST
Nautical Twilight 6:14 AM MST 7:10 PM MST
Astronomical Twilight 5:45 AM MST 7:40 PM MST
Moon 12:56 PM MST (2/19) 2:38 AM MST (2/19)
Length of Visible Light 11h 56m
Length of Day
11h 05m
Waxing Gibbous, 68% of the Moon is Illuminated
Feb 19
Waxing Gibbous
Feb 25
Full
Mar 4
Last Quarter
Mar 11
New
Mar 19
First Quarter

Hourly Weather History & Observations

Time (MST) Temp. Windchill Dew Point Humidity Pressure Visibility Wind Dir Wind Speed Gust Speed Precip Events Conditions
12:15 AM 26.6 °F 19.1 °F 15.8 °F 64% 30.07 in 10.0 mi East 6.9 mph - N/A   Clear
12:35 AM 28.4 °F 23.3 °F 14.0 °F 55% 30.06 in 10.0 mi East 4.6 mph - N/A   Clear
12:55 AM 28.4 °F 23.3 °F 15.8 °F 59% 30.06 in 10.0 mi ESE 4.6 mph - N/A   Clear
1:15 AM 26.6 °F 21.2 °F 15.8 °F 64% 30.05 in 10.0 mi SE 4.6 mph - N/A   Clear
1:35 AM 26.6 °F 21.2 °F 15.8 °F 64% 30.05 in 10.0 mi SE 4.6 mph - N/A   Clear
1:55 AM 26.6 °F 19.1 °F 15.8 °F 64% 30.04 in 10.0 mi SSE 6.9 mph - N/A   Clear
2:15 AM 28.4 °F 19.7 °F 15.8 °F 59% 30.04 in 10.0 mi South 9.2 mph - N/A   Clear
2:35 AM 30.2 °F 22.6 °F 15.8 °F 55% 30.03 in 10.0 mi SSE 8.1 mph - N/A   Clear
2:55 AM 28.4 °F 19.7 °F 15.8 °F 59% 30.01 in 10.0 mi SSE 9.2 mph - N/A   Clear
3:15 AM 30.2 °F 22.6 °F 15.8 °F 55% 30.01 in 10.0 mi SE 8.1 mph - N/A   Clear
3:35 AM 28.4 °F 20.4 °F 15.8 °F 59% 30.00 in 10.0 mi SE 8.1 mph - N/A   Clear
3:55 AM 28.4 °F 20.4 °F 15.8 °F 59% 30.00 in 10.0 mi SE 8.1 mph - N/A   Clear
4:15 AM 28.4 °F 19.7 °F 15.8 °F 59% 29.99 in 10.0 mi ESE 9.2 mph - N/A   Clear
4:35 AM 28.4 °F 22.2 °F 15.8 °F 59% 29.98 in 10.0 mi SE 5.8 mph - N/A   Clear
4:55 AM 28.4 °F 21.2 °F 15.8 °F 59% 29.98 in 10.0 mi SE 6.9 mph - N/A   Clear
5:15 AM 26.6 °F 21.2 °F 14.0 °F 59% 29.98 in 10.0 mi SE 4.6 mph - N/A   Clear
5:35 AM 26.6 °F 21.2 °F 14.0 °F 59% 29.97 in 10.0 mi ESE 4.6 mph - N/A   Clear
5:55 AM 26.6 °F - 14.0 °F 59% 29.98 in 10.0 mi Calm Calm - N/A   Clear
6:15 AM 24.8 °F 19.1 °F 14.0 °F 64% 29.97 in 10.0 mi SE 4.6 mph - N/A   Clear
6:35 AM 24.8 °F 17.9 °F 10.4 °F 54% 29.97 in 10.0 mi South 5.8 mph - N/A   Clear
6:55 AM 26.6 °F 19.1 °F 14.0 °F 59% 29.97 in 10.0 mi South 6.9 mph - N/A   Clear
7:15 AM 24.8 °F 16.9 °F 14.0 °F 64% 29.96 in 10.0 mi SSE 6.9 mph - N/A   Clear
7:35 AM 26.6 °F 19.1 °F 14.0 °F 59% 29.95 in 10.0 mi SSE 6.9 mph - N/A   Clear
7:55 AM 28.4 °F 21.2 °F 14.0 °F 55% 29.95 in 10.0 mi SSE 6.9 mph - N/A   Clear
8:15 AM 30.2 °F 21.9 °F 14.0 °F 51% 29.95 in 10.0 mi SSE 9.2 mph - N/A   Clear
8:35 AM 37.4 °F 29.3 °F 10.4 °F 33% 29.95 in 10.0 mi SSE 12.7 mph 20.7 mph N/A   Clear
8:55 AM 37.4 °F 28.2 °F 12.2 °F 36% 29.94 in 10.0 mi SSE 16.1 mph 23.0 mph N/A   Clear
9:15 AM 39.2 °F 31.2 °F 14.0 °F 36% 29.93 in 10.0 mi SSE 13.8 mph - N/A   Clear
9:35 AM 39.2 °F 30.5 °F 14.0 °F 36% 29.92 in 10.0 mi SE 16.1 mph 21.9 mph N/A   Clear
9:55 AM 39.2 °F 29.8 °F 12.2 °F 33% 29.92 in 10.0 mi SSE 18.4 mph 26.5 mph N/A   Clear
10:15 AM 39.2 °F 29.0 °F 14.0 °F 36% 29.92 in 10.0 mi SSE 21.9 mph 31.1 mph N/A   Clear
11:15 AM 42.8 °F 35.1 °F 15.8 °F 34% 29.91 in 10.0 mi SSE 16.1 mph 25.3 mph N/A   Clear
11:35 AM 41.0 °F 32.2 °F 14.0 °F 33% 29.91 in 10.0 mi South 18.4 mph 31.1 mph N/A   Clear
11:55 AM 41.0 °F 31.6 °F 14.0 °F 33% 29.90 in 10.0 mi South 20.7 mph 28.8 mph N/A   Clear
12:15 PM 42.8 °F 34.3 °F 15.8 °F 34% 29.89 in 10.0 mi South 19.6 mph 23.0 mph N/A   Clear
12:35 PM 42.8 °F 35.8 °F 15.8 °F 34% 29.88 in 10.0 mi South 13.8 mph 24.2 mph N/A   Clear
12:55 PM 42.8 °F 34.0 °F 14.0 °F 31% 29.87 in 10.0 mi South 20.7 mph 25.3 mph N/A   Clear
1:15 PM 44.6 °F 36.9 °F 15.8 °F 31% 29.86 in 10.0 mi SSE 18.4 mph 24.2 mph N/A   Clear
1:35 PM 44.6 °F 38.4 °F 15.8 °F 31% 29.85 in 10.0 mi South 12.7 mph 21.9 mph N/A   Clear
1:55 PM 44.6 °F 37.4 °F 17.6 °F 34% 29.84 in 10.0 mi SSE 16.1 mph 21.9 mph N/A   Clear
2:15 PM 44.6 °F 37.2 °F 15.8 °F 31% 29.83 in 10.0 mi South 17.3 mph 25.3 mph N/A   Clear
2:35 PM 44.6 °F 37.8 °F 15.8 °F 31% 29.82 in 10.0 mi South 15.0 mph 31.1 mph N/A   Clear
2:55 PM 44.6 °F 36.9 °F 15.8 °F 31% 29.81 in 10.0 mi SSE 18.4 mph 25.3 mph N/A   Clear
3:15 PM 44.6 °F 36.1 °F 14.0 °F 29% 29.80 in 10.0 mi SSW 21.9 mph 26.5 mph N/A   Clear
3:35 PM 44.6 °F 36.4 °F 14.0 °F 29% 29.79 in 10.0 mi South 20.7 mph 25.3 mph N/A   Clear
3:55 PM 44.6 °F 37.4 °F 12.2 °F 27% 29.79 in 10.0 mi South 16.1 mph 25.3 mph N/A   Clear
4:15 PM 42.8 °F 34.0 °F 10.4 °F 27% 29.78 in 10.0 mi South 20.7 mph 28.8 mph N/A   Clear
4:35 PM 42.8 °F 36.6 °F 10.4 °F 27% 29.78 in 10.0 mi South 11.5 mph 23.0 mph N/A   Clear
5:35 PM 39.2 °F 30.8 °F 10.4 °F 31% 29.75 in 10.0 mi South 15.0 mph 20.7 mph N/A   Clear
5:55 PM 39.2 °F 31.2 °F 10.4 °F 31% 29.75 in 10.0 mi South 13.8 mph 21.9 mph N/A   Clear
6:15 PM 37.4 °F 28.2 °F 8.6 °F 30% 29.75 in 10.0 mi SSE 16.1 mph 20.7 mph N/A   Clear
6:55 PM 37.4 °F 28.2 °F 10.4 °F 33% 29.74 in 10.0 mi South 16.1 mph 26.5 mph N/A   Clear
7:15 PM 35.6 °F 26.2 °F 10.4 °F 35% 29.74 in 10.0 mi South 15.0 mph 25.3 mph N/A   Clear
7:35 PM 35.6 °F 27.1 °F 8.6 °F 33% 29.75 in 10.0 mi South 12.7 mph 23.0 mph N/A   Clear
7:55 PM 35.6 °F 26.2 °F 10.4 °F 35% 29.75 in 10.0 mi South 15.0 mph 20.7 mph N/A   Clear
8:15 PM 35.6 °F 25.5 °F 10.4 °F 35% 29.74 in 10.0 mi SSE 17.3 mph 23.0 mph N/A   Clear
8:35 PM 35.6 °F 28.0 °F 14.0 °F 41% 29.74 in 10.0 mi South 10.4 mph 23.0 mph N/A   Clear
8:55 PM 35.6 °F 25.2 °F 15.8 °F 44% 29.73 in 10.0 mi SSE 18.4 mph - N/A   Clear
9:15 PM 35.6 °F 28.6 °F 15.8 °F 44% 29.72 in 10.0 mi South 9.2 mph 26.5 mph N/A   Clear
9:35 PM 35.6 °F 25.5 °F 15.8 °F 44% 29.72 in 10.0 mi SSE 17.3 mph 21.9 mph N/A   Clear
9:55 PM 35.6 °F 25.5 °F 17.6 °F 48% 29.72 in 10.0 mi South 17.3 mph 21.9 mph N/A   Clear
10:15 PM 35.6 °F 24.2 °F 19.4 °F 52% 29.70 in 10.0 mi South 21.9 mph 29.9 mph N/A   Partly Cloudy
10:35 PM 35.6 °F 23.7 °F 19.4 °F 52% 29.69 in 10.0 mi South 24.2 mph 31.1 mph N/A   Partly Cloudy
10:55 PM 33.8 °F 21.6 °F 19.4 °F 56% 29.67 in 10.0 mi South 23.0 mph 33.4 mph N/A   Clear
11:15 PM 33.8 °F 23.2 °F 19.4 °F 56% 29.66 in 10.0 mi South 17.3 mph 29.9 mph N/A   Clear
11:35 PM 32.0 °F 19.8 °F 21.2 °F 64% 29.66 in 10.0 mi South 20.7 mph 26.5 mph N/A   Clear
11:55 PM 32.0 °F 20.1 °F 23.0 °F 69% 29.66 in 10.0 mi South 19.6 mph 26.5 mph N/A   Clear